Lapse_Rate
2.4 2.1 1.8 1.3 1.0 0.7 0.5 0.3 0.8 0.8 1.0 1.0 1.2 1.1 1.1 0.8 0.9 1.1 0.9 1.2 1.0 1.6
1.9 2.2 2.0 1.6 1.4 0.8 0.8 1.2 0.9 1.2 0.9 1.2 1.3 1.3 1.3 0.8 0.9 1.2 1.3 1.5 1.7 1.6
1.9 2.3 2.2 2.0 1.6 1.6 1.5 1.7 1.2 1.2 1.4 1.3 1.4 1.5 1.3 1.0 1.5 1.3 1.5 2.0 1.7 1.8
2.1 2.2 2.3 2.5 2.1 2.0 2.0 1.8 1.7 1.8 1.6 1.5 1.5 1.5 1.3 1.0 1.2 1.3 1.5 1.9 1.8 2.1
3.6 3.5 3.5 3.5 3.4 3.4 2.9 2.9 2.7 2.4 2.2 2.1 2.0 1.9 1.5 1.4 2.5 1.7 1.5 1.7 2.1 2.2
4.1 3.9 3.8 3.8 3.8 3.6 3.2 2.9 3.1 2.8 2.4 2.3 2.5 2.3 2.2 1.9 1.9 2.1 2.2 2.3 2.5 2.6
4.8 4.8 4.5 4.3 4.2 3.9 3.7 3.4 3.0 3.0 2.9 3.0 3.0 3.5 3.1 4.1 3.1 2.9 3.6 3.7 3.9 3.5
5.5 5.4 5.1 5.0 4.9 4.8 4.5 4.4 4.1 4.0 3.7 3.6 4.0 4.4 4.0 4.8 4.4 4.0 3.8 4.5 5.2 5.6
5.4 5.7 5.7 5.7 5.7 5.7 5.7 5.4 5.2 5.0 5.1 4.7 5.5 6.1 7.1 8.4 5.6 5.5 5.8 5.3 5.2 6.0
5.4 5.6 5.7 6.0 6.4 6.1 6.0 6.1 5.8 5.3 5.3 5.3 5.3 6.7 7.8 9.1 9.4 8.8 8.0 7.6 7.9 8.0
6.0 6.0 6.1 6.2 6.0 5.6 5.4 5.5 5.6 5.5 5.6 5.8 6.2 7.5 8.2 9.4 9.3 8.9 8.7 8.6 8.8 8.5
6.7 6.4 6.0 5.4 5.0 5.2 5.4 5.5 5.6 6.0 6.1 5.9 5.9 7.5 8.6 9.7 9.4 9.4 9.1 9.5 9.3 9.1
5.6 5.1 5.0 4.9 4.5 4.6 5.0 5.5 6.1 6.6 6.4 6.6 6.3 7.1 8.3 9.7 9.7 8.9 9.4 9.3 9.3 9.8
4.9 4.8 4.6 4.4 4.1 4.2 4.3 5.3 5.1 5.8 5.9 6.2 6.7 6.6 9.2 9.7 9.5 9.3 9.4 9.5 9.4 9.7
Wind_Speed
9 7 7 7 6 5 4 4 10 11 11 10 9 8 7 5 3 3 2 1 1 1
5 7 6 6 5 3 7 8 10 11 9 8 8 6 5 3 2 1 1 2 2 1
6 6 6 6 6 7 8 9 9 8 8 7 6 6 5 3 3 3 3 3 3 3
5 5 5 5 5 6 8 9 7 7 6 6 5 5 4 3 4 4 4 4 4 5
5 4 4 4 4 6 5 7 7 7 5 4 5 6 4 4 4 5 5 5 4 5
3 3 3 3 3 5 5 6 6 6 4 4 5 5 6 5 4 5 5 5 5 6
2 2 2 3 3 4 6 4 5 6 6 6 6 7 8 8 6 7 7 9 8 6
2 2 3 3 3 3 4 6 7 5 7 8 8 9 7 9 7 7 8 8 12 13
4 4 4 4 4 4 5 5 6 7 8 7 8 18 20 18 9 11 11 10 9 13
5 7 7 7 8 9 9 8 9 8 8 10 10 21 24 25 12 11 11 12 11 10
7 8 9 9 9 9 9 10 9 10 10 10 10 23 25 27 17 13 13 12 12 13
9 9 9 9 9 9 9 10 10 11 11 11 11 23 26 23 14 14 14 13 15 12
8 8 8 9 9 8 9 11 10 12 12 17 14 22 26 23 11 13 11 12 14 26
7 9 9 9 7 7 8 10 9 11 10 12 13 13 25 27 14 11 11 11 10 10
Wind_Direction
147 152 155 159 154 148 145 139 148 137 132 126 117 109 101 91 88 80 67 68 354 348
120 135 145 137 135 132 135 141 142 139 129 128 126 127 126 126 132 123 178 212 230 239
109 110 119 126 130 135 138 135 141 141 143 141 143 149 154 160 197 205 233 230 216 222
104 105 107 116 127 139 141 149 150 156 158 165 170 181 185 200 217 225 232 246 239 245
111 112 114 120 133 150 149 162 163 170 176 187 197 208 210 219 240 223 234 237 243 250
122 129 144 163 175 183 180 185 190 189 195 203 207 213 227 232 237 238 236 238 234 235
150 187 215 229 226 218 211 206 208 211 215 223 224 234 236 240 229 232 238 236 234 228
338 316 306 286 268 254 235 233 226 221 229 230 233 242 238 242 240 235 235 234 240 245
308 294 271 261 257 244 240 237 232 231 233 232 241 250 255 252 227 236 241 245 241 244
274 273 272 268 261 252 246 245 240 242 238 241 242 254 261 263 260 249 238 238 241 239
266 262 263 261 258 257 255 252 250 248 245 246 246 257 261 262 261 256 252 245 235 232
243 249 254 257 258 259 262 261 254 251 249 245 248 256 262 262 259 256 254 250 242 235
234 232 239 243 247 253 254 257 257 257 251 248 253 254 259 258 255 254 253 249 246 250
234 236 237 238 233 238 243 256 257 257 256 258 257 257 259 258 252 247 248 246 244 241